Strona główna
METAR-TAF:

METAR-TAF

Lotnisko :

Linden, New Jersey, Stany Zjednoczone

Szerokość geograficzna: 40-37-03N, Długość geograficzna: 074-14-40W, wysokość: 7 m

Aktualna obserwacja pogody

Raport powstał 17 minut temu, godzina 01:15 UTC
Cisza
Temperatura -3°C
Wilgotność 30%
Ciśnienie 1029 hPa
Widzialność: 16.1 km
bezchmurnie

METAR: KLDJ 210115Z AUTO 00000KT 10SM CLR M03/M18 A3038 RMK AO2 T10281176

czas: 20:32 (01:32 UTC)


TAF: brakujący

Obserwacja i prognoza pogody dla ponad 4000 lotnisk (raport METAR i TAF).

Dostępne stacje oznaczono żółtymi i czerwonymi punktami na mapie.

Najedź kursorem aby zobaczyć nazwę stacji.

Kliknij aby zobaczyć obserwacje i prognozy pogody.

Aby zmienić mapę: kliknij na zielony przycisk z czarnym krzyżykiem, aby powiększyć; na zielony przycisk z myślnikiem, aby pomniejszyć; na zielone strzałki, aby przejść do map sąsiednich.


METAR-TAF: